Погода Удское

Погода Удское : погода сейчас, прогноз погоды и архив. Всё, что Вы хотите узнать о погоде Удское!

Поиск расширенной информации на нашем сайте:

Другие новости

Новости СМИ2

Главная страница сайта

Новости сайта

02.10.2013

Напоминаем, что на нашем новом сайте вы можете получить высокодетализированные прогнозы погоды по пунктам России, СНГ и мира (включающие важные для авиации метеовеличины, такие как направление и скорость ветра, видимость, явления погоды, количество и форма облачности, нижняя и верхняя граница облачности), а также ознакомиться с разнообразными материалами по авиационной метеорологии и подборкой полезных ссылок на эту тему.

Сайт Метеоцентр.Азия посвящён разработке технологий оптимизации авиаметеорологического обслуживания, включая проектирование и перспективное создание нескольких автоматизированных авиаметеорологических систем:
- система выпуска высокодетальных прогностических карт явлений погоды для нижнего воздушного пространства по России и ближнему зарубежью;
- система верификации прогнозов TAF (выпускаемых синоптиками официальных АМСГ РФ и ближнего зарубежья) и AUTOTAF (выпускаемых сайтом Метеоцентр.Азия) - выявление ошибок, онлайн-сопоставление с фактической погодой METAR, автоматическое внесение коррективов в прогнозы при резком отклонении фактической погоды от прогноза, подсчёт оправдываемости прогнозов по элементам и в целом;
- система обработки, анализа и отображения авиаметеорологической информации для применения провайдерами метеорологической информации.

Рекомендуем: Стоимость источника бесперебойного питания цена на ups источники бесперебойного питания.

Погода Удское - сегодня

Время (UTC), дата Ветер
(°,м/с) 
Видим.   Явления Облачность Т
(°С)
Тd
(°С)
f(%) Тe
(°С)
Pmin
(гПа)
dP
(гПа)
Po
(мм)
O2
(г/м3)
Тmin Tmax R s Состояние
почвы
15 16.02.17 020 (С) 4000 м  снег  10/0 средняя 
[As op]
-14.6 -16.6 85 -15  1015.4  0.1  755  323           
18 16.02.17 020 (С) 4000 м  снег  10/0 средняя 
[As op]
-15.2 -17.2 85 -15  1015.8  0.4  756  324           
21 16.02.17 360 (С) 4000 м  слаб. снег  10/0 средняя 
[As op]
-16.3 -18.2 85 -16  1016.8  0.9  756  326  -16.7    0.9  49  равномерный
сухой снег
100% 
00 17.02.17 тихо ()   20000 м  слаб. снег  10/0 средняя 
[As op]
-16.4 -19 80 -16  1016.3  -0.4  756  326  -16.4         
03 17.02.17 360 (С) 20000 м  {снег}  10/0 средняя, верхняя 
[As op|Cs]
-15.2 -18.6 75 -15  1017.3  757  324           
06 17.02.17 360 (С) 20000 м  {снег}  10/0 средняя, верхняя 
[Ac As|Cs]
-14.9 -19.2 70 -15  1017.1  -0.2  757  324           
09 17.02.17 360 (С) 20000 м    10/0 средняя 
[Ac As]
-15.9 -20.1 70 -16  1018  0.9  757  326    -14.1  0.0     
12 17.02.17 360 (С) 20000 м    8/0 средняя, верхняя 
[Ac As|Cs]
-17.2 -22.2 65 -17  1019.2  1.2  758  328           
15 17.02.17 340 (С) 20000 м    8/0 средняя, верхняя 
[Ac As|Cs]
-17.5 -22.5 65 -18  1019.3  0.1  758  328           
18 17.02.17 340 (С) 20000 м    6/0 средняя, верхняя 
[Ac As|Cs]
-19.2 -24.1 65 -19  1019.1  -0.4  758  330           
21 17.02.17 тихо ()   20000 м    6/0 средняя, верхняя 
[Ac As|Cs]
-24.9 -28.9 69 -25  1019.5  0.3  758  338  -25.3      49  равномерный
сухой снег
100% 
00 18.02.17 340 (С) 20000 м    4/0 средняя, верхняя 
[As trans|Cc]
-24.2 -26.7 80 -25  1020.3  0.8  759  337           
03 18.02.17 270 (З) 20000 м    3/0 средняя 
[As trans]
-16.3 -21.4 65 -16  1019.3  -0.7  758  327           
06 18.02.17 200 (Ю) 20000 м    3/0 верхняя 
[Cc]
-14.9 -20.9 60 -15  1017.9  -1.4  757  324           
09 18.02.17 тихо ()   20000 м    3/0 верхняя 
[Cc]
-18.9 -24.7 60 -19  1018.5  0.4  758  330    -13.2       
12 18.02.17 250 (З) 20000 м    3/0 верхняя 
[Cc]
-29.9 -33 74 -31  1018.1  -0.7  757  344           
15 18.02.17 тихо ()   20000 м    3/0 верхняя 
[Cc]
-24.5 -27 80 -25  1019.1  1.2  758  337           
18 18.02.17 250 (З) 20000 м    3/0 верхняя 
[Cc]
-25.4 -27.8 80 -26  1019  -0.1  758  338           
21 18.02.17 230 (ЮЗ) 20000 м    3/0 верхняя 
[Ci fib]
-27.6 -29.3 85 -28  1019.2  758  342  -30.2      49  равномерный
сухой снег
100% 
00 19.02.17 230 (ЮЗ) 20000 м    3/0 верхняя 
[Ci fib]
-25 -27.4 80 -26  1019.3  0.3  758  338           
03 19.02.17 200 (Ю) 20000 м    3/0 верхняя 
[Ci fib]
-18.7 -22.8 70 -19  1017.8  -1.4  757  329           
06 19.02.17 270 (З) 20000 м    ясно 
-14 -20.1 60 -14  1015.7  -1.9  756  322           
09 19.02.17 250 (З) 20000 м    ясно 
-17.3 -23.2 60 -17  1015.8  0.1  756  327    -13.3       
12 19.02.17 250 (З) 20000 м    ясно 
-22.8 -26.8 70 -23  1016.2  0.1  756  334           
15 19.02.17 230 (ЮЗ) 20000 м    ясно 
-22.3 -25.6 74 -23  1016.7  0.6  756  334           
Время (UTC), дата Ветер
(°,м/с) 
Видим.   Явления Облачность Т
(°С)
Тd
(°С)
f(%) Тe
(°С)
Pmin
(гПа)
dP
(гПа)
Po
(мм)
O2
(г/м3)
Тmin Tmax R s Состояние
почвы

Для получения пояснительной информации подведите курсор к названию столбца.

ПОГОДА Удское - архив

Всё, что Вы хотите узнать о погоде Удское - удобно и подробно!

Выберите нужную дату (начиная с 1 января 2015* года) и нажмите кнопку "Найти".
Будут отображены архивные сводки погоды по пункту Удское, начиная с указанной даты.


Отображать данные в формате CSV (для использования в таблицах Excel)


Внимание! Наш архив погоды предназначен исключительно для личного некоммерческого использования в познавательных целях. Если Вам необходимы официальные справки о состоянии погоды (для производственных, юридических, коммерческих и т.п. целей), обращайтесь в органы Росгидромета.

*Примечание: данная дата относится к архиву по метеостанциям СССР (Россия, СНГ, Балтия).
Архив по метеостанциям Зарубежной Европы и Азии (кроме Китая) хранится 10 дней, по другим регионам земного шара (Китай, Африка, Америка, Австралия, Океания) - 1 день.

Удское - район местоположения метеостанции


Название, широта, долгота, высота метеостанции:
Удское 54.53°ш. 134.42°д. 57 м над ур. моря [Российская Федерация]

Дополнительная информация

В oтличие oт бoльшинства пoгoдных сайтoв мы публикуем пoдрoбную метеoинфoрмацию в детальнoм прoфессиoнальнoм фoрмате.

Характеристики температуры и влажнoсти вoздуха измеряются на высoте 2 м в тени вдали oт зданий и деревьев.
Скoрoсть ветра измеряется на высoте 10 м (на урoвне рoста челoвека скoрoсть ветра ниже в 1.5-2 раза). Если метеoстанция нахoдится в гoрoде или в лесу, тo скoрoсть ветра занижена на 2-4 м/с пo сравнению с oткрытым местoм. Скoрoсть ветра над акватoриями крупных рек и oзёр, а также на вершинах хoлмoв на 2-5 м/с выше, чем в oбычных услoвиях.
Атмoсфернoе давление в разных тoчках местнoсти мoжет значительнo oтличаться oт давления на метеoстанции, в зависимoсти oт услoвий рельефа (при пoдъёме на 10 м давление пoнижается примернo на 1 мм рт.ст.).